Overview Statistics Trail Chart Weather Telemetry Raw packets
 

This is the latest recevied weather packets stored in our database for station/object W0WC. If no packets are shown the sender has not sent any weather packets the latest 10 day(s).

<< 100 101 102 103 104 105 106 >>
Time Temp. Humidity Pressure Rain* Wind** Luminosity Snow
1787939785 31.67° C 41% 1021.2 hPa 0 mm - 718 W/m² -
1787939484 30.56° C 42% 1021 hPa 0 mm - 717 W/m² -
1787939180 31.11° C 42% 1021.5 hPa 0 mm - 713 W/m² -
1787938874 31.67° C 40% 1021.3 hPa 0 mm - 708 W/m² -
1787938574 31.67° C 42% 1021.6 hPa 0 mm - 704 W/m² -
1787938269 30.56° C 44% 1021.6 hPa 0 mm - 698 W/m² -
1787937969 31.11° C 44% 1021.8 hPa 0 mm - 698 W/m² -
1787937665 31.11° C 43% 1021.6 hPa 0 mm - 689 W/m² -
1787937361 30.56° C 43% 1021.8 hPa 0 mm - 683 W/m² -
1787937057 31.11° C 43% 1021.7 hPa 0 mm - 674 W/m² -
1787936750 30.56° C 45% 1021.8 hPa 0 mm - 670 W/m² -
1787936445 30.56° C 46% 1021.8 hPa 0 mm - 670 W/m² -
1787936144 30° C 48% 1021.7 hPa 0 mm - 661 W/m² -
1787935840 30° C 47% 1021.8 hPa 0 mm - 655 W/m² -
1787935536 30° C 45% 1022 hPa 0 mm - 651 W/m² -
1787935232 30° C 47% 1022 hPa 0 mm - 645 W/m² -
1787934927 29.44° C 49% 1021.9 hPa 0 mm - 631 W/m² -
1787934622 30° C 49% 1022.1 hPa 0 mm - 620 W/m² -
1787934321 29.44° C 49% 1021.9 hPa 0 mm - 618 W/m² -
1787934021 29.44° C 51% 1021.7 hPa 0 mm - 607 W/m² -
1787933721 28.89° C 52% 1021.9 hPa 0 mm - 592 W/m² -
1787933427 28.89° C 53% 1022 hPa 0 mm - 578 W/m² -
1787933115 28.33° C 54% 1022.2 hPa 0 mm - 568 W/m² -
1787932815 28.89° C 53% 1022.2 hPa 0 mm - 526 W/m² -
1787932509 28.89° C 54% 1022 hPa 0 mm - 512 W/m² -

* Rain latest hour (hover to see other rain measurements)
** Current wind speed in m/s (hover to see current wind gust speed)